Time,TemperatureF,DewpointF,PressureIn,WindDirection,WindDirectionDegrees,WindSpeedMPH,WindSpeedGustMPH,Humidity,HourlyPrecipIn,Conditions,Clouds,dailyrainin,SolarRadiationWatts/m^2,SoftwareType,DateUTC
2013-07-14 07:51:00,55.0,40.0,-100.00,SE,124,0.0,0.0,57,-99.99,,,0.00,203.000000,,2013-07-14 14:51:00,
2013-07-14 08:12:00,55.0,40.0,-100.00,SE,124,0.0,0.0,57,-99.99,,,0.00,203.000000,,2013-07-14 15:12:00,
2013-07-14 08:22:00,55.0,40.0,-100.00,SE,124,0.0,0.0,57,-99.99,,,0.00,203.000000,,2013-07-14 15:22:00,
2013-07-14 08:32:00,55.0,40.0,-100.00,SE,124,0.0,0.0,57,-99.99,,,0.00,203.000000,,2013-07-14 15:32:00,
2013-07-14 08:42:00,55.0,40.0,-100.00,SE,124,0.0,0.0,57,-99.99,,,0.00,203.000000,,2013-07-14 15:42:00,
2013-07-14 08:51:00,67.0,45.0,-100.00,ENE,58,2.0,4.0,45,0.00,,,0.00,476.000000,,2013-07-14 15:51:00,
2013-07-14 09:11:00,67.0,45.0,-100.00,ENE,58,2.0,4.0,45,0.00,,,0.00,476.000000,,2013-07-14 16:11:00,
2013-07-14 09:22:00,67.0,45.0,-100.00,ENE,58,2.0,4.0,45,0.00,,,0.00,476.000000,,2013-07-14 16:22:00,
2013-07-14 09:32:00,67.0,45.0,-100.00,ENE,58,2.0,4.0,45,0.00,,,0.00,476.000000,,2013-07-14 16:32:00,
2013-07-14 09:43:00,67.0,45.0,-100.00,ENE,58,2.0,4.0,45,0.00,,,0.00,476.000000,,2013-07-14 16:43:00,
2013-07-14 09:51:00,72.0,45.0,-100.00,ENE,72,3.0,6.0,38,0.00,,,0.00,666.000000,,2013-07-14 16:51:00,
2013-07-14 10:11:00,72.0,45.0,-100.00,ENE,72,3.0,6.0,38,0.00,,,0.00,666.000000,,2013-07-14 17:11:00,
2013-07-14 10:22:00,72.0,45.0,-100.00,ENE,72,3.0,6.0,38,0.00,,,0.00,666.000000,,2013-07-14 17:22:00,
2013-07-14 10:32:00,72.0,45.0,-100.00,ENE,72,3.0,6.0,38,0.00,,,0.00,666.000000,,2013-07-14 17:32:00,
2013-07-14 10:43:00,72.0,45.0,-100.00,ENE,72,3.0,6.0,38,0.00,,,0.00,666.000000,,2013-07-14 17:43:00,
2013-07-14 11:51:00,81.0,33.0,-100.00,SW,223,5.0,13.0,18,0.00,,,0.00,947.000000,,2013-07-14 18:51:00,
2013-07-14 12:32:00,81.0,33.0,-100.00,SW,223,5.0,13.0,18,0.00,,,0.00,947.000000,,2013-07-14 19:32:00,
2013-07-14 12:43:00,81.0,33.0,-100.00,SW,223,5.0,13.0,18,0.00,,,0.00,947.000000,,2013-07-14 19:43:00,
2013-07-14 13:32:00,82.0,30.0,-100.00,South,179,7.0,15.0,15,0.00,,,0.00,1013.000000,,2013-07-14 20:32:00,
2013-07-14 13:43:00,82.0,30.0,-100.00,South,179,7.0,15.0,15,0.00,,,0.00,1013.000000,,2013-07-14 20:43:00,
2013-07-14 13:51:00,83.0,34.0,-100.00,SSW,212,6.0,16.0,17,0.00,,,0.00,1022.000000,,2013-07-14 20:51:00,
2013-07-14 14:22:00,83.0,34.0,-100.00,SSW,212,6.0,16.0,17,0.00,,,0.00,1022.000000,,2013-07-14 21:22:00,
2013-07-14 14:32:00,83.0,34.0,-100.00,SSW,212,6.0,16.0,17,0.00,,,0.00,1022.000000,,2013-07-14 21:32:00,
2013-07-14 14:42:00,83.0,34.0,-100.00,SSW,212,6.0,16.0,17,0.00,,,0.00,1022.000000,,2013-07-14 21:42:00,
2013-07-14 14:51:00,84.0,36.0,-100.00,SW,230,5.0,17.0,18,0.00,,,0.00,973.000000,,2013-07-14 21:51:00,
2013-07-14 15:22:00,84.0,36.0,-100.00,SW,230,5.0,17.0,18,0.00,,,0.00,973.000000,,2013-07-14 22:22:00,
2013-07-14 15:32:00,84.0,36.0,-100.00,SW,230,5.0,17.0,18,0.00,,,0.00,973.000000,,2013-07-14 22:32:00,
2013-07-14 15:42:00,84.0,36.0,-100.00,SW,230,5.0,17.0,18,0.00,,,0.00,973.000000,,2013-07-14 22:42:00,
2013-07-14 15:51:00,82.0,38.0,-100.00,WSW,245,7.0,18.0,21,0.00,,,0.00,874.000000,,2013-07-14 22:51:00,
2013-07-14 16:11:00,82.0,38.0,-100.00,WSW,245,7.0,18.0,21,0.00,,,0.00,874.000000,,2013-07-14 23:11:00,
2013-07-14 16:22:00,82.0,38.0,-100.00,WSW,245,7.0,18.0,21,0.00,,,0.00,874.000000,,2013-07-14 23:22:00,
2013-07-14 16:32:00,82.0,38.0,-100.00,WSW,245,7.0,18.0,21,0.00,,,0.00,874.000000,,2013-07-14 23:32:00,
2013-07-14 16:42:00,82.0,38.0,-100.00,WSW,245,7.0,18.0,21,0.00,,,0.00,874.000000,,2013-07-14 23:42:00,
2013-07-14 16:51:00,81.0,37.0,-100.00,WSW,241,6.0,17.0,21,0.00,,,0.00,723.000000,,2013-07-14 23:51:00,
2013-07-14 17:11:00,81.0,37.0,-100.00,WSW,241,6.0,17.0,21,0.00,,,0.00,723.000000,,2013-07-15 00:11:00,
2013-07-14 17:22:00,81.0,37.0,-100.00,WSW,241,6.0,17.0,21,0.00,,,0.00,723.000000,,2013-07-15 00:22:00,
2013-07-14 17:32:00,81.0,37.0,-100.00,WSW,241,6.0,17.0,21,0.00,,,0.00,723.000000,,2013-07-15 00:32:00,
2013-07-14 17:43:00,81.0,37.0,-100.00,WSW,241,6.0,17.0,21,0.00,,,0.00,723.000000,,2013-07-15 00:43:00,
2013-07-14 17:51:00,79.0,38.0,-100.00,SSW,203,5.0,11.0,23,0.00,,,0.00,536.000000,,2013-07-15 00:51:00,
2013-07-14 18:11:00,79.0,38.0,-100.00,SSW,203,5.0,11.0,23,0.00,,,0.00,536.000000,,2013-07-15 01:11:00,
2013-07-14 18:22:00,79.0,38.0,-100.00,SSW,203,5.0,11.0,23,0.00,,,0.00,536.000000,,2013-07-15 01:22:00,
2013-07-14 18:32:00,79.0,38.0,-100.00,SSW,203,5.0,11.0,23,0.00,,,0.00,536.000000,,2013-07-15 01:32:00,
2013-07-14 18:43:00,79.0,38.0,-100.00,SSW,203,5.0,11.0,23,0.00,,,0.00,536.000000,,2013-07-15 01:43:00,
2013-07-14 18:51:00,77.0,40.0,-100.00,SSW,212,3.0,12.0,27,0.00,,,0.00,337.000000,,2013-07-15 01:51:00,
2013-07-14 19:11:00,77.0,40.0,-100.00,SSW,212,3.0,12.0,27,0.00,,,0.00,337.000000,,2013-07-15 02:11:00,
2013-07-14 19:22:00,77.0,40.0,-100.00,SSW,212,3.0,12.0,27,0.00,,,0.00,337.000000,,2013-07-15 02:22:00,
2013-07-14 19:32:00,77.0,40.0,-100.00,SSW,212,3.0,12.0,27,0.00,,,0.00,337.000000,,2013-07-15 02:32:00,
2013-07-14 19:42:00,77.0,40.0,-100.00,SSW,212,3.0,12.0,27,0.00,,,0.00,337.000000,,2013-07-15 02:42:00,
2013-07-14 19:51:00,70.0,41.0,-100.00,South,169,3.0,7.0,35,0.00,,,-99.99,134.000000,,2013-07-15 02:51:00,
2013-07-14 20:11:00,70.0,41.0,-100.00,South,169,3.0,7.0,35,0.00,,,-99.99,134.000000,,2013-07-15 03:11:00,
2013-07-14 20:21:00,70.0,41.0,-100.00,South,169,3.0,7.0,35,0.00,,,-99.99,134.000000,,2013-07-15 03:21:00,
2013-07-14 20:32:00,70.0,41.0,-100.00,South,169,3.0,7.0,35,0.00,,,-99.99,134.000000,,2013-07-15 03:32:00,
2013-07-14 20:42:00,70.0,41.0,-100.00,South,169,3.0,7.0,35,0.00,,,-99.99,134.000000,,2013-07-15 03:42:00,
2013-07-14 20:51:00,64.0,41.0,-100.00,South,178,2.0,4.0,43,0.00,,,0.00,7.000000,,2013-07-15 03:51:00,
2013-07-14 21:11:00,64.0,41.0,-100.00,South,178,2.0,4.0,43,0.00,,,0.00,7.000000,,2013-07-15 04:11:00,
2013-07-14 21:22:00,64.0,41.0,-100.00,South,178,2.0,4.0,43,0.00,,,0.00,7.000000,,2013-07-15 04:22:00,
2013-07-14 21:32:00,64.0,41.0,-100.00,South,178,2.0,4.0,43,0.00,,,0.00,7.000000,,2013-07-15 04:32:00,
2013-07-14 21:42:00,64.0,41.0,-100.00,South,178,2.0,4.0,43,0.00,,,0.00,7.000000,,2013-07-15 04:42:00,
2013-07-14 21:51:00,61.0,41.0,-100.00,SSW,192,3.0,5.0,47,0.00,,,0.00,1.000000,,2013-07-15 04:51:00,
2013-07-14 22:11:00,61.0,41.0,-100.00,SSW,192,3.0,5.0,47,0.00,,,0.00,1.000000,,2013-07-15 05:11:00,
2013-07-14 22:21:00,61.0,41.0,-100.00,SSW,192,3.0,5.0,47,0.00,,,0.00,1.000000,,2013-07-15 05:21:00,
2013-07-14 22:32:00,61.0,41.0,-100.00,SSW,192,3.0,5.0,47,0.00,,,0.00,1.000000,,2013-07-15 05:32:00,
2013-07-14 22:43:00,61.0,41.0,-100.00,SSW,192,3.0,5.0,47,0.00,,,0.00,1.000000,,2013-07-15 05:43:00,
2013-07-14 22:51:00,58.0,42.0,-100.00,WNW,287,1.0,7.0,56,0.00,,,0.00,1.000000,,2013-07-15 05:51:00,
2013-07-14 23:11:00,58.0,42.0,-100.00,WNW,287,1.0,7.0,56,0.00,,,0.00,1.000000,,2013-07-15 06:11:00,
2013-07-14 23:22:00,58.0,42.0,-100.00,WNW,287,1.0,7.0,56,0.00,,,0.00,1.000000,,2013-07-15 06:22:00,
2013-07-14 23:32:00,58.0,42.0,-100.00,WNW,287,1.0,7.0,56,0.00,,,0.00,1.000000,,2013-07-15 06:32:00,
2013-07-14 23:42:00,58.0,42.0,-100.00,WNW,287,1.0,7.0,56,0.00,,,0.00,1.000000,,2013-07-15 06:42:00,